Погода в Кашгаре

Китай     39°28′04″N   75°59′08″E
темп.,
°C
ветер,
м/с
пор.,
м/с
влажн.,
%
обл.,
%
осадки,
мм/ч
давл.,
гПа
погр.,
м
6 марта, сб
сб623:00+10юз343378 0.0 102371
02:00+8сз223583 0.0 102423
05:00+6ссз34250 0.0 102348
08:00+4сз23270 0.0 102322
11:00+8с222391 0.0 102264
14:00+10всв553773 0.0 1019614
17:00+12всв443058 0.0 10151560
20:00+12всв343079 0.0 10141659
7 марта, вс
вс723:00+9ссв233898 0.0 101654
02:00+8св334299 0.0 101740
05:00+6св1246100 0.0 101623
08:00+5св1250100 0.0 101722
11:00+7ююв0144100 0.0 101849
14:00+10в223093 0.0 10161026
17:00+12вюв322594 0.0 10121738
20:00+11юв1230100 0.0 10121482
8 марта, пн
пн823:00+8ссз0140100 0.0 101522
02:00+7св1243100 0.0 101622
05:00+5ссв224831 0.0 101722
08:00+3ссв115316 0.0 101822
11:00+8с11380 0.0 101977
14:00+11вюв11300 0.0 1016972
17:00+14юв21250 0.0 10141499
20:00+13вюв322448 0.0 10141226
9 марта, вт
вт923:00+10всв1233100 0.0 101822
02:00+8с1235100 0.0 102022
05:00+6св1140100 0.0 102022
08:00+5ссз114196 0.0 102122
11:00+9св1230100 0.0 102265
14:00+12св4423100 0.0 1019884
17:00+14всв432179 0.0 10151925
20:00+14всв342187 0.0 10152030
10 марта, ср
ср1023:00+11ссв332897 0.0 101842
02:00+8св343387 0.0 101946
05:00+7св333493 0.0 101838
08:00+5св233886 0.0 101722
11:00+8с113277 0.0 101793
14:00+12св332489 0.0 10131386
17:00+13вюв1121100 0.0 10102048
20:00+13ююз3223100 0.0 10111615